Theta_e
344 348 352 351 353 354 355 355 354 354 353 353 352 352 351 351 350 349 349 348 348 348 348 348 347 348 348 348 348 349 350 351 349 348 348 347 347 348 348 348 347 346 346 346 346 347 346 346 347 348 347 347 347 347 347 348 349 349 349 347 347 347 348 348 349 348 348 349 351 352 351 351 351 352 352 351 352 352 351 351 349 349 350 349 350
344 350 352 353 352 355 354 354 355 353 352 352 352 352 351 351 350 349 349 348 347 348 348 347 347 349 348 348 350 350 350 350 350 349 349 349 348 347 346 345 345 345 346 346 345 344 343 344 345 345 346 345 345 345 345 346 347 347 347 347 346 346 347 348 348 348 347 348 350 349 349 350 350 350 351 352 352 352 350 350 350 349 347 348 349
346 350 350 353 351 354 355 354 354 354 352 352 351 352 350 350 349 349 349 348 348 347 347 347 347 347 348 349 349 349 349 349 349 348 348 347 346 346 346 345 345 346 346 346 345 345 344 342 341 341 340 341 341 342 343 344 344 345 346 346 345 344 345 347 347 347 346 348 348 347 346 348 349 349 350 350 352 351 349 349 348 349 348 350 349
346 347 350 351 348 351 355 355 354 354 352 353 351 351 350 350 349 349 349 348 348 348 347 347 347 347 346 348 348 349 348 349 349 348 348 347 347 346 345 346 346 345 344 346 345 344 342 341 340 338 336 337 337 338 339 340 342 343 344 345 344 344 341 344 347 346 346 347 347 345 344 345 345 348 349 350 351 350 348 348 348 348 349 349 349
347 347 349 351 353 350 353 355 354 354 352 352 351 351 350 350 350 349 348 348 348 348 347 346 346 346 347 346 347 347 347 347 349 348 347 346 346 346 346 345 344 344 345 345 344 343 341 340 339 336 335 334 334 334 335 337 340 341 342 343 344 343 341 341 344 345 345 344 345 346 341 342 345 347 347 349 349 348 348 348 348 348 348 348 348
346 348 349 350 352 354 350 354 354 354 353 353 352 351 350 350 350 349 348 348 347 347 346 346 346 345 347 347 347 347 347 347 348 348 347 346 346 346 345 344 344 343 343 343 343 342 341 340 339 336 334 334 333 333 334 336 337 339 340 341 341 342 342 340 343 342 342 341 340 343 340 342 343 344 347 347 347 345 345 345 346 347 347 347 347
346 348 348 350 351 351 347 354 354 354 353 351 351 351 350 350 349 349 348 348 347 347 346 346 346 345 346 346 346 346 346 347 346 347 347 347 345 345 344 343 342 342 342 341 342 341 340 339 338 335 333 332 332 334 334 335 336 337 338 339 340 341 341 343 341 339 341 341 339 339 338 342 344 345 345 346 346 345 345 345 345 345 345 346 346
347 348 349 348 352 350 347 354 354 354 353 352 351 351 350 350 349 349 348 348 347 347 346 346 345 345 346 346 346 346 346 347 346 347 347 346 345 344 343 342 342 342 341 341 340 340 339 339 336 334 332 332 332 331 333 334 334 334 336 338 340 340 342 341 339 339 337 339 336 338 339 340 343 343 346 345 344 344 345 344 344 344 344 344 343
345 347 349 348 351 347 348 352 354 354 353 352 351 350 350 350 350 350 348 347 346 346 346 345 345 346 346 346 346 346 345 346 346 346 345 345 344 343 342 342 341 341 341 340 340 340 339 337 336 332 331 331 332 332 332 333 333 334 335 337 338 340 340 338 339 337 340 335 338 339 341 341 342 343 344 345 344 344 343 342 341 341 342 342 342
342 347 348 349 354 344 347 351 353 354 352 352 351 350 351 350 350 348 347 347 346 346 346 346 345 346 346 346 346 346 347 346 346 346 345 344 344 342 341 340 339 340 340 340 340 339 339 336 334 331 329 330 330 330 332 332 333 334 334 336 338 339 339 338 337 338 337 336 336 337 339 345 342 343 344 344 343 342 339 337 338 339 340 340 341
342 345 349 349 356 344 349 352 352 352 352 351 350 351 350 350 350 348 348 347 346 346 346 347 346 345 346 346 346 347 347 346 346 345 344 343 343 342 340 339 339 338 338 338 339 338 338 336 334 332 330 329 330 330 329 331 333 333 334 334 336 336 336 336 336 339 336 336 338 335 337 342 340 340 342 343 342 339 336 336 336 336 335 337 340
340 346 349 349 345 343 347 350 351 352 351 350 350 350 350 350 350 348 347 347 346 346 346 347 346 345 347 347 346 346 346 346 345 345 344 343 342 341 340 339 339 338 337 337 337 337 337 335 334 332 330 328 327 329 328 330 332 332 333 333 335 335 334 335 338 337 337 336 335 338 337 336 337 338 339 339 340 337 336 336 337 336 335 335 337
343 344 347 351 352 339 345 348 350 352 351 350 350 349 348 349 349 349 347 347 346 346 346 346 345 346 346 346 346 345 345 344 344 344 343 343 341 340 340 339 338 338 337 336 336 336 336 334 332 331 330 327 326 327 328 329 331 331 333 334 334 333 334 334 339 336 337 337 336 338 337 338 337 341 338 338 338 336 335 336 336 335 335 335 333
342 344 347 348 350 343 340 344 347 351 352 350 349 348 348 348 348 348 347 347 346 346 345 346 345 345 346 345 346 345 345 344 344 344 343 342 341 340 340 339 338 337 337 337 336 335 334 333 332 331 328 325 324 325 326 328 329 331 332 332 332 332 330 332 335 337 336 336 335 334 336 336 336 337 336 335 336 336 335 334 335 334 332 333 332
341 346 346 346 348 349 339 338 343 345 348 350 349 348 348 346 347 348 347 347 347 346 345 345 345 345 346 345 344 344 344 344 344 343 343 341 341 341 339 339 338 337 337 336 336 334 333 333 332 329 327 325 323 323 324 326 327 328 330 330 330 329 328 334 337 335 336 333 336 335 333 335 337 334 335 338 337 335 335 334 334 333 332 332 332
341 342 344 344 344 349 348 341 335 339 343 346 347 346 347 347 346 347 347 347 347 347 347 347 346 346 346 344 344 344 343 343 341 341 341 341 340 340 339 338 337 337 336 336 335 334 332 332 331 328 327 325 323 321 320 323 324 325 326 327 327 327 326 325 333 334 334 335 334 334 333 337 337 335 336 335 335 335 334 333 333 333 331 331 332
339 340 342 342 343 342 344 348 344 332 336 340 341 342 344 346 347 347 346 347 347 347 348 348 347 347 346 345 344 344 343 341 340 340 340 342 340 340 338 337 337 336 336 335 334 333 332 331 329 328 327 326 322 319 317 319 322 322 323 324 325 326 325 323 332 332 332 334 335 334 336 337 336 336 336 335 335 335 333 332 333 331 329 330 331
339 339 340 340 341 341 341 344 349 348 349 343 335 338 341 343 345 345 344 345 345 346 346 346 346 346 344 342 341 340 341 342 341 341 340 341 340 340 339 337 337 336 335 335 334 333 331 330 329 328 327 326 322 318 315 317 319 320 320 321 322 324 324 320 331 331 331 332 332 330 333 335 336 335 334 331 331 332 332 332 332 330 329 330 330
338 338 338 339 338 340 341 343 345 345 346 346 348 347 335 339 341 341 341 343 343 342 342 343 341 340 338 337 336 335 335 336 335 335 338 336 336 333 337 337 336 336 335 334 333 332 331 330 329 328 326 325 322 318 315 315 317 317 318 319 320 321 319 323 330 330 331 330 332 332 331 334 337 335 333 332 331 330 332 332 330 329 328 329 330
336 337 337 339 340 339 341 341 343 343 345 345 346 348 336 334 338 338 337 340 340 339 339 339 333 329 330 330 329 334 331 336 327 335 332 334 332 333 334 336 336 335 335 334 333 332 331 330 329 328 326 324 321 316 313 313 313 315 316 318 320 315 326 327 327 328 329 329 330 329 330 332 335 334 332 332 331 331 331 331 328 328 328 328 329
330 334 334 336 337 338 339 341 341 342 343 344 346 346 348 332 333 332 332 333 335 335 336 330 322 320 323 322 326 345 344 343 338 341 326 337 325 327 332 335 336 336 334 334 333 332 330 330 330 328 326 324 319 316 315 312 311 312 315 317 313 324 320 323 325 325 328 329 328 325 328 330 332 333 331 331 330 330 330 328 327 328 328 328 328
319 321 327 328 334 337 338 338 340 341 343 344 345 346 350 341 347 347 344 338 332 330 337 344 336 345 328 332 343 341 340 342 340 335 338 336 329 324 326 331 335 334 333 334 333 332 331 331 329 328 326 324 321 318 312 307 309 311 315 310 320 316 318 319 322 322 323 326 325 323 325 328 330 332 332 331 330 329 329 327 328 327 327 328 326
315 316 318 317 321 327 336 337 339 340 342 342 344 345 345 346 347 347 345 338 341 342 344 344 343 343 345 343 341 341 340 340 341 338 337 327 333 323 325 329 332 332 331 333 333 332 331 331 330 327 326 324 327 327 325 323 317 306 308 317 309 310 314 315 318 320 321 321 323 321 323 326 327 329 331 330 329 328 328 327 327 326 326 326 327
314 315 316 320 318 320 327 335 337 340 340 340 342 343 344 344 344 347 345 345 344 345 344 343 344 343 343 342 342 343 342 341 329 325 329 337 331 321 323 325 326 326 325 330 330 331 331 332 329 328 325 325 326 324 324 323 321 318 314 309 308 308 310 310 312 315 317 320 322 318 319 322 324 326 329 331 329 328 327 326 325 327 326 325 325
315 317 319 318 319 319 319 328 336 338 340 339 339 340 342 343 343 345 345 344 345 343 343 344 344 342 341 342 343 344 343 340 340 340 338 338 336 335 333 333 333 334 324 335 332 332 330 331 329 325 329 327 325 324 324 324 323 322 318 315 310 309 310 310 309 309 313 313 319 316 316 317 320 324 326 330 329 328 326 326 326 326 326 326 325
315 316 317 319 319 320 320 319 331 336 339 340 339 339 341 341 341 341 342 344 345 344 344 341 342 342 342 341 342 343 343 341 340 339 338 337 337 336 335 335 335 335 332 334 334 332 331 332 331 329 328 327 326 325 325 324 323 322 320 319 317 314 311 310 308 309 309 310 317 314 314 314 316 319 321 325 329 328 332 334 328 326 326 326 325
314 315 316 317 319 319 320 320 324 333 336 340 340 339 340 340 341 341 340 339 344 340 341 342 342 342 341 343 340 341 342 341 338 338 337 336 336 336 336 335 335 334 334 334 333 332 332 330 330 329 328 327 326 325 324 324 323 322 321 320 319 318 317 316 315 313 312 312 315 310 313 313 313 315 317 320 323 327 331 333 334 335 331 327 326
313 314 315 316 318 319 319 318 322 332 335 337 338 338 339 340 340 343 341 336 338 338 340 342 343 342 342 340 338 339 339 336 337 340 337 338 335 335 335 334 334 334 334 334 333 332 331 330 329 329 327 327 326 325 324 323 322 322 321 321 320 319 318 317 317 317 315 315 312 314 313 311 312 312 315 317 320 322 326 330 332 334 335 336 330
310 313 314 315 318 319 320 317 322 331 333 335 336 337 338 338 339 340 340 336 340 339 341 341 341 342 342 342 341 340 340 337 336 337 336 336 336 337 336 336 336 334 334 333 334 333 331 334 328 327 328 327 326 325 324 323 323 322 321 321 320 319 318 317 317 316 315 316 315 312 312 311 310 311 313 314 316 317 320 323 329 332 334 335 336
311 313 313 314 316 320 321 322 325 331 332 333 335 336 337 338 338 337 338 336 337 338 339 340 339 338 338 338 338 338 338 337 337 339 338 338 338 336 335 335 335 333 334 333 332 334 331 329 328 328 327 326 326 324 324 323 323 322 321 321 320 319 319 318 317 316 315 315 314 312 309 311 310 309 311 311 313 315 316 318 321 326 331 333 334
311 310 310 312 315 319 321 325 327 332 332 332 335 335 337 334 332 331 331 330 329 328 329 330 331 332 333 334 334 333 333 334 335 335 334 331 330 331 330 330 329 328 328 327 327 327 329 327 326 326 326 326 325 324 324 323 323 322 321 321 321 320 320 319 318 317 315 315 315 313 314 309 312 310 310 310 312 313 315 316 316 319 324 328 332
308 307 309 311 314 317 321 324 326 331 332 332 332 328 327 327 326 325 325 325 324 323 322 323 323 324 327 329 330 331 330 330 331 330 329 327 326 324 325 324 323 323 324 324 324 325 324 323 324 325 324 325 324 324 323 323 322 322 322 321 321 320 320 320 318 317 316 317 314 314 314 314 311 312 311 311 310 311 312 313 314 316 318 321 326
306 307 308 311 312 317 320 324 328 331 329 326 324 323 322 322 321 321 321 322 321 319 318 318 319 321 322 323 324 327 328 328 329 329 324 325 324 323 322 320 320 320 321 321 321 321 321 321 322 323 322 323 323 323 323 323 322 322 322 321 321 320 320 319 318 318 316 316 315 314 316 314 312 311 311 311 310 310 310 311 313 315 317 318 320
304 306 308 310 312 319 321 321 322 321 321 322 321 320 319 318 317 317 317 318 318 317 315 315 316 317 319 320 321 322 323 325 325 325 325 323 322 320 319 319 320 320 320 320 318 319 318 318 318 319 317 321 320 321 320 321 321 322 321 321 319 318 318 317 317 317 317 316 315 316 314 314 312 316 314 310 311 310 310 311 311 313 314 316 318
304 305 306 309 313 317 319 317 317 317 316 316 315 314 314 312 312 312 313 313 312 312 312 312 312 313 315 316 318 319 321 321 322 321 320 320 319 319 319 319 320 320 319 320 319 319 319 317 318 320 320 319 318 316 315 315 316 317 319 319 318 318 317 317 317 317 315 316 314 315 314 313 312 312 312 309 309 310 310 309 310 312 313 313 314
303 304 305 310 312 312 315 313 312 311 311 310 311 311 310 309 309 309 309 309 308 309 309 310 309 311 312 313 313 315 317 318 319 319 318 318 317 315 316 316 317 317 318 318 318 317 316 315 313 315 317 315 315 315 315 315 315 315 316 316 316 316 315 315 316 315 316 314 313 313 312 310 310 308 305 308 308 311 310 308 308 309 310 311 312
303 304 305 308 310 311 312 311 309 309 308 307 308 308 308 308 307 306 306 306 305 306 306 307 307 307 308 309 310 311 312 313 315 315 314 313 312 312 312 314 314 313 314 313 313 313 314 314 312 313 314 313 313 311 311 311 311 312 313 314 315 314 314 314 314 313 314 312 311 310 309 310 308 306 307 306 307 307 310 308 308 309 309 309 310
304 305 307 307 308 309 310 310 309 308 307 307 306 306 306 306 305 304 303 303 303 303 303 304 304 305 305 305 306 307 308 309 310 311 310 310 310 310 309 309 310 310 309 309 309 310 310 311 311 312 310 308 307 306 306 307 308 310 310 311 312 312 312 313 312 308 310 308 308 307 307 308 307 306 306 306 306 305 306 308 309 310 309 310 310
303 304 306 307 308 308 308 309 309 308 307 306 306 305 304 304 304 304 303 302 301 301 302 302 302 302 303 304 304 304 305 307 307 307 307 307 307 306 306 307 306 306 305 305 305 306 308 308 307 309 310 306 305 305 304 305 306 308 309 309 310 311 312 311 309 308 308 310 309 308 313 307 307 307 306 306 305 306 306 306 305 305 308 308 309
303 304 305 307 307 308 308 307 309 308 308 307 306 306 305 304 303 303 301 301 301 300 301 301 302 302 302 303 303 303 304 304 306 306 305 305 305 306 306 306 306 306 306 305 305 304 304 306 306 305 307 306 304 304 304 303 306 307 307 308 311 310 310 308 308 308 307 309 308 307 306 307 306 306 306 307 306 306 306 306 304 305 305 306 308
302 304 304 304 306 306 306 305 307 309 308 307 306 305 303 302 302 301 300 300 300 300 299 300 300 300 301 301 302 302 303 303 304 304 304 304 304 305 305 305 304 303 302 302 302 303 303 303 305 306 304 303 301 302 302 303 303 301 304 307 309 309 307 307 306 306 306 306 306 305 305 305 305 304 305 307 308 307 305 305 305 304 304 306 305
301 302 302 303 304 305 305 305 306 306 306 305 304 302 301 301 299 299 298 298 298 297 296 297 297 298 298 298 299 299 300 300 301 302 302 302 302 302 303 303 303 302 302 302 301 301 302 302 302 303 304 302 300 301 301 301 299 297 298 302 307 306 306 305 305 303 306 306 306 306 305 304 304 305 305 305 305 305 304 304 304 304 304 304 304
301 301 302 303 303 304 304 304 304 304 304 305 304 302 302 301 300 298 297 296 296 296 296 296 296 296 296 296 296 297 297 297 297 298 298 298 298 299 299 299 300 300 298 297 298 298 299 299 299 299 301 302 301 301 300 300 296 298 300 299 298 300 303 303 302 301 304 305 305 304 304 304 304 304 303 303 302 303 304 304 304 304 303 303 303
300 300 301 301 302 303 303 303 303 303 302 302 301 302 301 300 299 298 297 296 294 295 295 294 294 294 294 295 295 296 295 295 296 296 296 296 296 295 295 295 295 296 295 293 293 294 295 295 295 296 298 298 297 297 300 300 298 297 293 294 297 299 296 296 295 300 305 303 304 302 303 303 303 303 302 301 302 302 302 302 302 303 303 303 303
299 299 300 301 302 302 303 303 303 302 302 301 300 300 299 297 297 296 296 295 295 293 293 292 292 293 293 294 294 295 295 295 295 295 295 295 295 295 295 294 294 294 294 293 292 293 293 294 294 293 293 294 294 294 296 299 297 299 296 294 293 292 292 293 294 298 300 299 303 302 304 302 301 300 299 301 302 301 301 301 301 301 302 302 302
297 297 299 300 301 302 302 303 303 303 303 303 302 301 299 298 296 295 293 292 290 291 290 290 291 291 292 293 294 294 294 294 295 295 295 295 294 294 294 294 293 293 293 293 293 293 293 292 293 293 292 293 293 291 291 294 295 295 297 297 296 292 291 293 293 289 296 301 300 301 302 301 300 298 299 300 300 300 300 298 299 300 301 301 301
296 297 298 299 300 300 301 301 301 301 302 301 302 301 299 297 296 294 293 291 289 290 292 292 292 292 293 292 293 294 294 294 294 294 294 294 294 293 293 293 293 293 293 292 292 292 292 292 293 293 292 292 292 290 290 290 292 292 294 294 295 295 295 293 290 291 288 293 296 296 298 302 299 297 298 298 297 299 297 296 298 299 299 300 301
296 297 297 298 298 298 299 299 299 299 299 299 298 298 296 295 293 293 292 291 290 290 291 292 293 293 292 292 293 293 293 294 293 294 294 293 293 293 293 293 292 292 292 291 291 291 292 292 292 292 292 292 291 290 290 290 289 289 291 291 291 292 293 296 295 291 289 286 287 294 299 296 296 296 297 295 296 296 293 294 297 298 298 299 300
296 296 296 296 297 297 297 297 296 296 296 297 296 295 295 294 293 292 291 292 292 292 292 293 293 293 292 292 292 292 292 293 293 293 293 293 292 292 292 292 291 291 291 291 291 291 290 290 290 290 290 290 290 291 290 288 289 289 289 289 290 290 290 291 291 290 287 284 285 287 288 292 292 293 295 295 297 294 293 293 295 295 296 298 298
295 296 295 296 296 295 295 295 294 295 295 295 295 294 294 293 293 292 292 291 292 292 293 292 292 293 292 292 292 292 292 292 292 292 292 292 292 292 292 291 291 291 290 290 290 290 290 290 290 289 289 289 289 290 289 288 289 289 289 289 288 288 288 288 288 287 287 287 284 284 286 286 285 288 291 295 296 292 293 293 294 294 296 296 295
295 295 295 295 294 294 294 293 293 293 294 294 294 294 294 294 293 293 293 292 293 293 292 292 292 292 291 291 291 291 291 291 291 291 291 291 291 291 291 291 290 290 290 290 289 289 289 289 289 289 289 288 287 289 288 289 288 288 288 287 287 287 286 285 285 286 285 284 284 284 285 286 286 285 289 291 292 292 292 294 293 293 295 295 294
Wind_Speed
6 8 12 12 6 10 11 12 12 12 13 13 12 12 12 13 12 12 10 10 9 10 10 9 8 9 9 8 8 9 9 10 11 11 12 13 13 13 14 14 14 14 14 14 14 14 14 13 13 13 13 13 13 13 12 13 13 13 14 13 13 13 13 13 12 12 10 10 13 14 13 13 13 13 13 13 15 14 14 14 10 9 7 9 12
12 9 11 11 6 8 11 12 12 12 13 13 12 13 13 12 12 11 11 10 9 9 9 9 9 9 8 8 8 8 9 10 11 11 12 13 13 13 13 13 12 13 13 14 14 14 14 13 13 13 13 13 13 12 12 12 12 12 12 12 13 12 12 12 12 11 10 8 8 11 12 13 13 12 13 14 15 15 14 14 13 9 7 10 9
10 10 10 11 6 6 9 12 13 13 13 12 13 13 13 12 11 11 11 10 9 9 9 9 9 8 8 9 8 8 9 11 11 11 12 12 12 12 13 13 13 13 14 14 14 14 14 14 13 13 13 13 12 12 12 12 10 11 10 11 11 11 11 11 11 9 9 6 6 5 14 11 12 13 14 14 15 15 14 14 13 12 10 14 11
9 9 10 12 6 3 8 10 12 13 13 12 13 13 12 12 11 11 11 11 9 9 9 9 9 8 8 9 9 8 9 11 12 12 12 12 12 13 13 13 13 13 13 14 15 14 14 14 14 13 13 13 12 12 12 11 10 10 9 9 10 10 10 10 10 8 9 8 6 5 2 6 8 12 13 14 14 15 14 14 14 14 15 15 15
8 8 10 11 10 6 7 8 12 13 13 12 13 13 13 12 11 11 11 10 10 9 9 9 8 9 8 7 7 8 8 10 12 12 12 12 13 12 12 12 13 12 13 15 14 13 13 13 13 13 13 12 12 12 11 11 10 10 10 9 9 9 9 8 8 8 9 11 11 9 5 6 7 10 12 13 14 14 14 15 15 13 12 14 15
7 8 10 11 11 10 6 10 12 13 13 13 13 13 12 12 11 11 10 10 9 9 9 9 8 9 8 7 7 7 8 9 11 12 12 12 12 12 13 12 13 13 13 13 13 13 13 13 13 13 13 12 12 11 10 10 10 10 9 8 8 8 8 7 6 7 9 10 12 3 4 6 6 8 12 13 13 13 13 14 15 15 15 13 10
6 7 8 10 9 10 7 10 13 13 14 13 13 13 12 11 11 11 11 10 10 9 9 8 8 8 8 7 7 7 7 9 11 12 12 12 11 12 12 13 12 11 11 11 12 12 13 13 13 13 12 12 11 11 11 10 10 10 9 8 8 8 7 7 6 7 9 8 2 4 4 6 6 6 12 12 12 13 12 14 14 15 15 16 14
4 6 7 9 9 11 6 8 13 13 14 13 13 13 11 11 11 11 10 10 10 9 9 8 7 7 7 7 7 7 8 9 10 11 11 12 12 13 12 12 12 11 11 12 12 13 13 14 13 12 12 11 11 11 11 10 10 10 9 8 8 7 7 7 6 7 9 4 4 4 4 6 6 6 11 12 13 14 14 13 14 14 15 15 14
5 7 7 8 8 15 8 6 11 13 14 13 12 12 11 10 10 9 10 10 9 9 9 8 7 7 6 6 7 7 8 9 11 10 11 12 13 13 12 12 11 12 12 12 13 13 13 13 13 12 12 12 11 11 11 11 11 10 9 9 8 7 7 6 6 7 8 2 3 4 6 5 6 6 10 12 13 14 15 13 12 14 14 13 12
5 6 6 6 10 13 10 5 11 12 13 13 12 12 11 10 10 10 11 10 9 9 8 7 7 6 6 6 6 7 11 10 12 12 12 12 12 12 12 12 12 11 12 12 13 13 14 13 12 12 12 12 11 11 11 11 11 10 10 9 8 8 7 7 7 9 4 3 4 5 4 6 7 7 10 11 13 13 12 12 10 10 10 12 13
4 6 5 5 13 11 9 4 7 9 12 11 12 12 11 11 10 11 11 10 9 8 8 7 6 6 5 6 6 7 11 11 12 12 12 11 11 11 12 12 12 12 12 12 13 13 14 13 13 12 12 12 12 11 11 11 11 11 10 9 9 9 8 7 8 3 4 3 4 4 2 5 8 6 9 11 12 12 11 11 12 12 12 12 13
4 4 4 5 10 10 8 3 5 8 8 10 11 12 12 11 10 11 11 10 9 8 7 7 6 5 5 6 7 9 10 12 12 12 11 11 11 11 12 11 11 12 12 13 13 13 13 13 13 12 12 12 12 12 11 11 11 11 11 9 9 8 7 7 7 3 0 2 5 4 6 7 8 8 9 9 10 11 11 11 12 12 12 11 11
4 2 3 7 8 7 7 3 3 5 8 10 10 12 11 11 11 10 11 10 10 8 7 6 5 5 5 4 7 9 10 9 11 11 11 11 11 11 11 11 11 12 12 13 14 14 13 13 13 12 12 12 12 12 12 11 12 11 11 10 9 8 6 8 4 0 2 2 3 2 3 3 7 9 7 8 8 9 9 11 11 12 11 11 11
3 3 3 4 6 8 6 3 3 4 6 8 9 9 11 11 11 10 10 11 9 8 7 6 5 4 3 4 8 8 11 11 10 11 11 11 11 10 11 11 11 12 12 13 14 13 12 13 13 12 11 12 11 12 12 12 12 12 12 11 10 8 8 7 6 2 2 3 3 5 4 4 6 9 6 6 6 8 9 10 11 11 11 10 10
5 3 3 2 7 7 6 3 3 2 3 5 8 6 10 9 9 10 9 8 8 8 7 5 5 5 4 3 4 5 9 10 11 10 11 11 11 11 11 11 12 12 12 12 13 12 12 12 12 11 11 11 11 11 11 11 11 12 12 11 10 9 8 3 0 2 1 2 2 0 3 4 8 8 7 8 8 8 9 10 11 11 11 10 9
5 3 1 2 3 8 7 5 1 1 1 4 7 8 8 9 8 9 10 8 7 7 6 4 3 5 4 6 5 7 7 6 6 8 9 10 10 11 11 10 11 12 12 12 12 12 11 11 11 10 11 10 10 10 10 10 11 11 11 11 10 9 10 7 2 1 2 2 2 2 2 7 10 7 8 8 8 9 9 9 9 11 10 9 9
4 3 1 2 2 3 5 8 7 3 1 2 5 7 7 9 9 9 9 8 8 8 6 5 4 6 7 7 5 6 7 6 5 5 4 8 10 11 10 11 11 11 11 11 11 11 10 10 10 9 10 10 10 10 10 9 10 10 10 10 10 9 9 8 3 1 4 4 3 3 7 6 8 6 7 8 8 7 8 9 10 10 9 8 8
4 2 2 2 3 3 3 6 8 7 8 5 4 6 8 7 7 9 8 9 9 8 7 6 5 6 7 7 5 5 6 7 8 6 4 8 10 9 9 10 10 10 11 11 11 10 9 9 9 9 9 9 9 9 9 9 8 9 8 9 8 8 9 9 3 3 3 3 1 1 7 10 9 7 6 6 6 6 8 9 10 9 8 7 8
4 3 2 1 2 2 2 3 6 7 9 9 8 8 9 9 8 7 9 9 9 9 9 8 7 7 8 8 7 7 5 6 6 1 3 8 10 9 9 9 10 10 10 10 10 9 8 8 8 8 7 8 8 9 8 8 8 7 7 6 6 6 8 6 3 3 0 1 2 6 6 12 10 6 6 7 6 7 8 8 9 8 7 7 8
4 3 2 1 0 1 2 3 4 6 7 8 8 8 9 11 9 8 6 7 8 8 9 9 8 9 9 10 9 7 8 6 9 5 2 7 9 10 8 9 11 11 10 10 9 8 7 7 7 6 7 7 7 7 7 8 7 7 6 5 5 8 4 2 2 2 3 3 3 6 10 12 11 7 7 7 7 6 7 7 7 7 5 5 6
3 4 2 2 1 2 3 3 3 4 6 6 6 7 8 10 8 9 8 6 6 8 8 8 8 8 9 9 10 7 7 6 7 8 7 7 8 12 9 9 9 10 10 9 8 8 7 6 7 6 5 5 6 6 7 6 6 6 6 5 7 4 4 3 3 2 3 3 2 6 11 11 11 7 7 7 6 6 6 6 5 4 5 5 5
3 3 4 3 1 2 3 4 3 5 5 5 4 5 6 8 9 8 8 8 7 7 7 6 6 6 5 6 6 6 5 5 6 5 6 6 6 9 10 10 9 10 10 10 9 9 7 6 6 5 4 5 7 4 5 4 3 2 3 7 4 4 3 4 3 3 2 3 3 7 10 10 10 7 8 7 6 5 5 5 5 4 5 5 4
4 3 3 5 3 2 2 4 5 4 5 5 4 5 6 6 7 7 7 9 9 7 7 6 7 6 6 6 5 5 4 5 5 7 6 7 5 5 8 9 8 8 9 9 9 9 7 6 6 5 6 5 5 3 3 1 2 4 5 2 3 3 3 3 3 3 2 3 3 8 8 9 8 7 7 7 5 4 3 4 5 3 3 4 4
5 5 4 2 4 4 3 4 5 5 5 5 5 5 5 5 5 6 6 6 7 8 8 7 5 5 5 6 4 3 3 4 7 10 9 7 6 6 6 7 7 6 9 7 7 7 7 6 6 6 6 2 4 3 4 3 3 3 4 4 3 3 3 3 2 3 3 2 3 8 8 9 8 8 7 8 6 3 3 2 3 3 2 2 2
5 5 3 5 5 5 4 3 5 5 6 5 5 5 4 4 5 6 6 6 5 5 5 6 6 6 7 5 4 3 4 5 7 7 7 7 7 6 5 5 4 5 8 5 5 5 5 5 4 5 1 4 3 4 2 3 4 4 4 5 3 3 2 2 2 3 2 3 4 7 8 9 10 9 8 8 7 5 2 2 3 4 1 3 1
6 5 6 6 6 6 5 5 4 6 5 5 5 4 2 4 5 4 4 5 4 2 3 6 6 4 4 5 4 4 5 5 6 6 6 7 8 7 7 7 7 6 6 5 4 5 3 2 1 2 4 4 3 4 3 3 3 3 3 3 4 3 3 2 3 2 3 2 4 6 6 8 10 11 10 9 8 7 10 9 6 5 4 6 4
6 6 6 6 6 6 6 5 5 5 6 5 4 3 3 3 3 2 3 5 6 5 6 4 4 6 6 5 3 3 5 6 6 6 6 6 6 6 7 7 7 6 5 4 2 3 2 2 1 3 4 4 4 2 3 2 3 3 3 2 2 2 2 3 2 3 3 3 2 5 4 6 9 10 11 11 11 11 12 12 11 10 8 7 6
6 7 7 6 6 7 6 4 5 4 5 6 4 3 3 3 2 2 2 2 3 4 5 4 4 4 4 4 2 5 5 5 6 5 5 4 5 7 6 5 4 3 4 2 2 2 1 2 4 4 1 2 2 2 2 3 2 2 2 2 1 1 1 1 1 2 2 2 2 5 3 4 7 9 10 11 12 12 12 12 13 12 12 12 9
8 8 7 7 7 8 6 3 4 5 5 5 5 3 2 2 2 1 2 7 4 3 4 2 1 1 0 1 1 3 4 4 5 5 4 4 3 3 3 3 3 3 2 2 1 1 1 2 4 2 1 2 1 2 1 3 2 3 2 2 1 1 0 0 0 1 1 1 2 4 4 2 4 6 8 9 10 11 12 12 12 13 13 12 13
8 8 8 7 7 8 5 2 2 4 4 5 4 3 2 2 1 5 7 8 7 7 6 5 4 3 2 4 6 5 4 4 5 3 2 2 3 4 2 1 2 5 3 5 5 4 2 2 2 2 3 1 1 4 3 2 2 1 2 0 1 1 0 1 1 1 0 1 1 2 6 4 3 3 4 6 8 9 10 11 11 12 14 15 14
8 8 7 7 7 7 5 3 1 3 4 5 4 2 5 9 10 10 8 8 9 9 9 9 8 8 8 8 6 6 6 5 3 3 6 6 6 5 5 5 5 5 5 4 5 4 4 3 4 3 3 2 3 2 2 2 1 1 1 2 2 2 2 2 2 2 2 1 1 1 4 7 5 5 4 5 6 6 8 9 9 10 11 12 15
7 8 7 8 7 7 8 5 4 3 3 6 9 10 10 10 10 9 8 8 9 9 9 9 9 8 9 8 8 7 7 7 6 5 5 6 5 6 5 5 5 4 4 4 4 4 4 3 3 3 3 1 1 1 2 3 2 3 1 3 2 2 2 1 2 2 2 1 1 1 1 4 8 6 6 5 5 5 6 6 8 9 9 10 11
6 7 9 8 9 8 6 8 8 6 9 13 10 10 9 9 9 8 7 7 9 9 9 8 8 7 8 9 10 9 8 7 6 6 7 6 6 5 5 5 5 5 4 5 4 3 3 3 3 3 3 1 1 2 2 3 3 4 3 3 3 3 2 2 2 2 2 2 2 2 1 2 2 7 7 5 5 5 5 5 6 7 8 9 9
7 7 9 9 7 5 5 6 8 10 11 10 10 8 7 7 7 7 7 8 8 8 8 7 7 7 7 9 9 9 8 8 6 7 6 6 7 7 6 5 5 6 5 4 5 4 4 4 2 2 1 1 1 2 3 3 4 4 4 3 2 3 3 3 3 2 2 2 2 1 2 1 1 1 1 7 5 5 4 5 6 6 7 8 9
6 8 10 9 9 7 6 7 8 10 10 10 11 9 8 7 7 8 8 8 8 8 8 7 7 7 7 8 9 8 8 8 8 7 7 7 5 6 4 5 4 4 5 4 3 2 1 3 3 3 2 3 3 3 4 4 4 4 4 3 3 3 3 3 2 2 2 2 3 2 2 2 2 2 2 3 5 4 2 6 8 9 8 8 9
8 7 7 8 9 9 9 10 10 11 10 10 9 10 10 9 9 9 8 9 8 8 8 8 7 7 7 8 9 9 8 9 8 8 7 7 7 8 8 7 8 7 6 6 6 6 6 6 5 6 5 4 4 3 3 3 3 4 4 4 4 3 3 3 2 3 2 3 3 2 2 3 3 4 4 2 3 5 3 2 5 8 9 10 11
7 8 8 7 8 9 9 11 11 11 13 12 11 11 11 11 12 11 11 10 9 9 8 8 8 9 8 8 9 9 11 10 9 9 8 8 8 7 7 7 7 6 6 7 7 7 6 5 6 6 5 3 3 5 5 5 5 5 5 4 4 4 3 3 3 3 2 1 3 3 2 2 2 3 2 4 3 3 4 1 3 5 6 7 9
7 8 7 7 7 7 8 9 9 11 11 9 9 9 10 10 11 11 11 11 11 9 8 8 8 9 9 9 10 9 9 10 10 10 9 9 8 8 8 9 8 7 8 9 9 9 8 8 7 5 6 6 6 6 7 7 6 5 5 5 5 4 4 2 3 2 2 3 2 2 3 3 3 4 4 3 4 4 4 1 4 5 5 3 6
5 7 7 7 7 7 7 8 9 11 10 10 10 11 11 11 10 11 11 11 9 9 8 9 9 8 9 9 9 9 8 10 11 11 9 9 9 9 9 10 9 9 9 9 8 8 7 6 7 5 4 7 7 7 8 8 7 6 5 5 4 4 2 3 3 3 1 1 2 2 1 2 2 3 3 3 3 3 4 4 4 5 3 1 4
5 6 7 6 7 7 7 8 9 8 8 8 7 7 8 8 9 9 11 10 9 9 9 9 9 9 9 9 9 9 9 8 8 8 8 7 7 6 6 7 7 7 7 8 7 6 7 5 5 7 7 6 8 8 8 9 7 6 5 4 2 1 3 4 2 2 4 3 3 3 3 2 3 3 3 2 3 3 3 3 3 4 4 6 7
5 6 7 7 7 6 6 8 6 6 6 6 7 7 8 7 9 10 10 9 9 9 10 9 10 10 11 10 10 10 11 11 10 9 9 9 9 8 8 8 7 7 8 9 8 9 9 9 6 5 7 6 7 9 10 10 7 6 6 4 1 3 6 3 4 5 4 4 3 3 3 4 4 4 3 2 2 2 3 4 4 4 4 4 5
6 7 7 7 7 7 8 7 6 8 8 8 8 8 8 7 8 8 9 8 9 9 9 9 9 10 12 12 11 12 12 12 11 11 11 10 9 9 10 10 9 9 9 9 10 10 10 10 9 6 6 7 7 10 10 10 7 8 8 6 1 4 6 5 4 9 3 3 4 4 3 4 4 5 4 4 4 5 5 4 4 5 4 5 5
5 6 7 7 7 7 7 7 7 7 8 8 8 9 9 9 10 9 10 10 10 10 10 10 10 11 12 12 12 12 12 12 12 11 10 11 11 10 10 10 10 9 9 10 10 10 10 11 11 9 6 6 6 7 10 11 7 9 6 5 4 3 3 4 8 11 5 3 4 4 4 3 6 5 5 5 5 6 6 5 5 5 5 5 5
5 6 6 6 6 6 7 7 8 9 9 9 10 11 12 13 12 12 12 11 10 10 11 11 12 12 13 12 12 12 13 12 13 12 11 12 12 11 10 10 10 9 9 9 11 11 11 11 11 11 9 7 8 8 9 10 10 10 7 6 6 5 4 6 12 7 3 5 4 4 4 4 4 5 5 5 5 6 6 6 6 6 6 6 5
5 6 6 5 5 7 7 8 9 10 10 10 12 12 12 13 12 12 11 12 10 10 10 11 11 11 11 12 12 12 12 12 12 12 11 12 11 11 10 10 10 10 9 9 10 11 11 10 11 10 12 9 8 8 8 9 11 10 7 6 4 5 5 8 10 3 7 8 4 5 2 4 5 6 5 4 4 5 5 6 7 7 7 7 6
6 5 5 6 6 7 7 8 8 8 8 9 10 9 9 9 9 8 9 9 9 9 10 10 9 10 10 9 11 11 12 11 11 12 12 11 11 11 11 10 10 9 9 9 9 9 11 11 10 9 10 11 8 7 8 8 8 9 9 6 5 4 7 8 7 5 9 4 6 5 4 4 5 7 5 4 5 4 4 6 7 7 7 7 6
5 5 5 6 7 7 7 8 7 7 7 7 6 6 8 8 10 10 10 9 11 9 9 9 9 9 9 10 10 10 11 11 12 11 11 11 11 11 11 11 10 10 9 9 10 10 9 10 9 9 8 8 9 7 8 7 6 7 7 7 6 5 6 6 5 8 8 3 4 5 5 3 7 6 5 5 6 4 6 7 7 6 6 6 6
5 5 5 6 7 7 8 8 7 7 7 7 9 8 10 10 11 11 10 10 10 11 10 9 9 8 9 10 9 10 11 11 11 11 11 11 11 11 11 10 10 10 9 9 9 9 8 8 9 9 8 8 8 7 7 7 7 6 7 6 6 5 6 5 5 6 7 11 9 4 2 7 6 5 4 5 5 5 7 7 6 6 6 5 5
5 5 5 6 6 7 8 8 9 9 9 10 10 10 10 10 10 10 11 10 10 9 9 8 8 8 10 9 9 9 10 11 11 11 11 11 11 10 10 10 10 10 9 8 9 9 10 9 9 9 9 8 7 7 7 7 7 6 7 7 6 6 6 6 6 6 7 9 10 8 9 5 5 4 2 4 1 4 5 6 6 6 6 4 5
6 6 6 6 7 7 9 10 10 8 9 10 11 11 11 10 10 10 12 10 9 9 8 9 8 8 10 9 9 8 8 9 10 10 10 11 10 10 10 10 10 9 8 9 9 9 9 9 9 8 8 7 7 7 7 6 6 6 6 6 6 6 5 5 4 6 6 6 9 11 10 12 11 6 6 2 1 5 4 4 4 5 5 4 5
5 6 6 7 7 8 9 11 10 9 9 10 11 11 10 10 10 11 12 12 11 9 9 9 8 8 8 9 8 8 8 8 8 9 10 10 10 10 10 10 9 9 9 9 9 9 8 7 7 8 8 9 7 7 7 7 6 6 7 6 6 6 6 7 7 6 7 7 9 9 10 9 11 13 5 5 7 5 4 3 4 5 4 3 4
Wind_Direction
145 164 131 131 159 165 159 156 153 150 145 140 137 130 126 123 120 115 115 112 112 113 114 109 107 102 103 110 112 96 94 96 105 102 97 88 86 85 84 78 74 70 67 63 59 57 53 52 49 46 44 41 38 38 40 42 44 46 44 43 43 43 42 41 39 37 30 45 59 61 62 61 55 57 57 57 55 47 46 52 50 54 58 42 56
145 168 133 143 152 160 162 158 153 152 147 145 141 133 130 125 125 121 119 117 116 115 112 111 109 110 112 110 106 104 99 100 103 98 99 99 97 93 87 85 82 76 73 69 64 58 54 50 47 44 40 38 35 32 31 35 39 39 45 41 40 40 42 40 36 30 25 22 30 73 58 60 62 56 57 57 56 51 45 50 57 57 55 54 53
141 161 140 142 148 149 164 160 156 153 150 149 143 136 131 128 127 127 123 122 119 118 118 120 112 111 112 104 110 110 101 108 115 110 106 103 94 88 82 78 76 75 71 70 65 60 54 48 45 41 37 33 32 30 27 27 29 33 38 39 36 37 37 39 34 24 14 360 360 67 95 72 57 59 56 55 55 52 49 49 50 55 54 53 50
147 163 141 131 138 149 161 158 155 149 151 151 145 141 135 131 134 132 131 125 124 122 125 121 120 115 115 102 111 107 101 106 116 112 106 99 95 86 84 81 75 70 70 68 64 58 54 48 43 39 35 30 27 26 25 23 23 26 32 37 31 29 30 32 29 14 353 341 314 282 48 67 63 56 58 55 51 49 47 50 53 52 51 52 47
149 165 138 145 161 155 165 154 152 149 150 152 148 143 138 137 139 136 130 129 128 129 126 126 126 123 116 118 111 111 109 106 116 115 110 105 98 97 91 86 79 76 71 68 68 63 57 49 45 40 33 29 26 23 22 21 21 22 24 25 24 26 25 26 23 4 341 322 320 302 66 72 71 53 57 56 51 45 45 43 45 48 48 43 46
152 161 148 160 165 158 156 153 152 147 153 155 148 146 142 141 141 137 132 133 133 135 133 135 133 127 125 126 123 117 112 110 114 111 108 104 100 95 91 85 77 73 71 69 66 63 57 51 44 40 34 28 26 25 23 21 21 22 18 17 17 22 25 26 21 353 320 313 297 286 56 61 64 66 61 57 54 48 47 46 41 38 37 43 44
157 163 153 160 174 153 146 160 154 152 155 154 151 148 145 142 144 142 137 137 138 135 136 137 137 139 135 132 130 124 118 114 114 115 113 108 102 94 88 82 77 71 68 68 64 58 55 52 46 38 34 28 26 25 25 26 23 21 18 15 15 21 23 32 17 339 308 293 335 17 66 66 67 74 61 56 47 40 44 48 47 40 32 27 25
150 168 163 158 179 137 145 161 158 155 153 155 152 151 146 142 145 146 140 141 140 141 137 144 147 144 142 139 137 131 126 118 113 113 108 99 99 92 86 78 73 68 61 60 61 57 54 53 44 38 35 31 27 26 27 27 24 21 20 16 16 20 34 25 360 315 301 309 21 27 23 60 61 68 61 59 51 40 33 47 43 44 38 32 24
157 173 173 158 131 136 135 161 160 156 155 154 153 151 143 139 140 142 143 141 144 145 146 151 155 154 153 146 142 138 127 119 116 110 107 102 95 89 84 77 71 66 65 63 61 58 57 50 42 39 37 31 28 28 28 26 25 23 20 17 20 31 33 12 337 304 275 2 27 35 17 43 75 65 60 61 55 47 40 32 34 33 38 36 34
162 166 172 169 135 127 134 166 162 163 158 155 155 151 144 139 139 142 144 146 149 153 152 158 161 162 163 154 149 141 122 129 119 115 109 104 97 92 86 82 73 67 66 64 64 61 59 52 45 40 36 33 29 29 28 27 29 27 26 27 29 35 20 359 324 291 322 43 61 46 30 1 71 55 49 53 58 53 46 42 37 32 28 33 36
146 165 153 167 123 123 116 155 164 163 164 156 158 154 150 146 147 145 147 150 153 159 157 166 170 168 165 163 156 137 136 135 127 120 115 109 101 94 89 83 77 73 70 64 61 60 58 51 45 42 38 35 31 30 29 28 30 31 31 30 35 28 13 346 317 275 17 15 46 75 101 256 86 62 53 53 55 50 44 36 32 28 25 25 30
134 137 152 103 111 112 108 118 170 160 161 164 163 159 155 149 151 151 150 153 158 161 163 173 176 167 169 180 157 149 151 140 131 124 120 114 106 99 93 86 81 79 74 67 61 58 56 50 48 45 41 36 32 31 31 31 32 33 32 34 35 31 15 341 305 33 55 31 48 360 17 28 48 55 46 44 41 43 35 30 27 24 22 24 24
76 99 146 134 123 103 100 108 142 160 167 168 172 166 160 153 155 156 153 157 158 164 164 179 180 177 167 169 160 159 137 147 135 126 120 113 108 108 101 93 86 81 77 69 63 59 56 52 49 47 44 38 34 32 32 34 34 36 34 35 32 34 10 328 312 152 66 47 81 45 34 47 65 25 33 36 38 38 29 19 19 23 23 24 21
81 84 111 187 114 117 96 95 132 148 161 182 164 181 169 162 159 160 159 158 161 164 170 179 180 165 173 181 152 164 154 157 146 131 125 119 115 109 101 95 90 85 79 76 72 68 62 57 54 51 47 42 38 34 35 35 35 33 32 31 26 13 349 296 328 355 47 73 34 26 8 45 44 24 357 36 52 19 22 11 13 19 15 21 22
60 51 69 156 138 149 116 60 62 97 131 168 172 181 172 175 165 159 163 165 158 164 169 178 173 163 171 175 141 158 163 160 146 134 128 124 123 114 104 98 95 89 85 82 77 72 67 63 60 57 49 44 42 39 37 37 36 32 28 26 20 1 354 329 297 52 50 35 91 244 43 40 34 27 359 59 35 26 13 8 10 20 15 22 26
39 67 95 123 180 136 173 145 102 53 77 129 159 173 180 174 176 165 165 165 158 152 150 170 145 132 124 114 151 157 158 154 138 124 134 131 127 118 110 105 99 95 93 90 85 78 71 66 66 60 51 44 42 40 39 41 39 33 26 21 13 2 351 348 289 8 119 41 49 24 59 57 33 25 26 21 15 7 11 9 16 17 14 20 29
58 31 115 111 108 200 179 174 184 145 129 92 136 159 181 180 179 165 169 165 163 153 147 154 125 115 117 125 148 155 140 133 135 121 182 133 128 119 115 112 104 98 96 94 88 82 77 75 69 62 53 47 43 41 41 42 45 38 28 16 9 358 341 336 341 299 37 42 352 353 55 38 22 24 9 10 8 2 5 17 16 15 12 15 31
65 76 117 124 153 215 195 188 172 189 210 162 149 164 162 188 186 166 168 168 167 157 149 153 134 107 108 115 106 104 138 149 148 165 191 126 118 120 115 110 108 100 98 96 94 90 84 81 74 68 60 52 47 43 41 42 43 47 36 17 359 347 325 319 358 44 41 352 305 70 47 13 12 2 354 357 356 9 2 16 16 14 14 11 38
83 72 59 122 160 198 226 223 201 206 213 214 215 181 173 175 177 189 168 168 169 161 152 151 138 115 108 120 124 120 103 107 84 66 139 123 122 121 120 117 108 109 104 104 102 100 96 87 89 82 73 65 56 50 44 38 37 37 38 21 345 322 308 287 22 30 131 204 6 57 29 6 11 350 349 346 354 355 16 16 14 14 13 21 41
105 104 114 96 327 201 224 221 224 217 208 214 216 203 167 173 178 189 191 170 166 162 159 152 142 129 128 133 137 139 154 154 144 181 134 143 138 131 132 128 121 118 116 113 114 115 108 107 98 101 93 86 78 68 52 42 32 24 17 355 335 303 285 24 4 5 335 56 308 55 17 6 3 347 347 347 352 1 12 16 10 17 10 26 38
84 95 86 115 57 268 226 237 234 230 221 220 225 222 151 163 169 173 181 177 178 163 166 157 146 134 141 151 155 181 173 160 158 175 141 163 162 137 142 130 130 128 126 123 134 128 126 122 119 99 104 99 106 98 83 58 39 15 352 333 308 289 34 8 350 359 5 26 18 46 20 6 358 346 341 340 343 1 16 13 1 14 18 31 26
39 29 67 66 175 196 223 235 226 232 232 220 228 231 144 180 196 184 188 171 189 167 171 175 178 164 139 153 197 202 191 169 169 145 162 145 156 146 141 138 146 144 137 147 143 145 145 135 118 118 117 154 167 175 123 107 87 31 334 308 294 29 18 8 351 4 354 28 15 31 19 6 1 348 346 341 335 3 23 15 340 1 23 25 23
28 10 9 2 347 325 225 223 235 225 224 222 223 230 208 201 205 199 191 189 181 180 193 188 207 189 185 202 210 216 207 179 160 162 147 139 126 147 152 150 158 158 155 145 150 153 153 142 131 155 186 180 212 29 45 56 140 188 235 281 36 19 9 6 351 357 4 32 6 30 11 359 356 348 338 337 328 349 28 9 343 16 13 3 347
1 359 341 359 5 332 316 235 228 233 225 215 211 216 219 219 211 183 192 195 198 195 205 186 201 209 199 206 207 208 200 143 116 137 132 154 146 172 181 156 175 183 145 140 149 155 155 137 157 183 212 208 31 48 23 38 29 24 31 18 27 14 5 2 10 354 347 38 42 30 8 352 346 340 332 331 333 330 5 358 347 336 342 334 312
5 324 357 355 356 350 327 289 218 231 233 222 215 213 208 213 224 194 194 194 190 210 212 185 192 193 218 217 215 203 201 166 157 162 186 178 168 173 174 178 190 180 177 161 170 163 188 154 188 209 252 48 38 61 48 34 40 24 40 23 13 13 3 9 1 1 344 345 65 31 10 352 343 334 328 324 326 327 279 339 334 290 316 291 349
0 351 353 344 357 340 331 301 267 211 221 233 212 200 220 213 214 219 193 191 176 158 248 215 188 196 205 237 233 220 220 198 187 186 192 175 175 182 185 191 195 194 188 218 192 166 204 160 158 45 38 45 46 56 60 43 55 50 46 37 20 10 11 7 2 2 347 334 80 49 15 355 343 338 331 320 316 304 336 328 313 313 282 275 238
352 357 348 342 343 339 333 303 281 220 205 227 228 212 196 219 208 223 246 204 158 179 220 205 197 172 212 191 221 237 233 227 204 198 203 201 190 197 195 196 201 211 196 216 180 185 191 151 100 71 43 38 39 32 49 54 63 73 73 63 41 28 20 4 359 2 337 333 88 86 38 356 347 340 336 330 319 312 311 319 321 327 312 278 282
354 355 352 339 343 343 327 283 245 236 196 198 221 207 205 206 173 59 261 313 242 213 202 201 204 196 197 218 220 241 241 231 214 203 216 229 208 208 208 212 220 203 219 217 185 208 178 133 101 87 111 88 79 11 45 49 79 45 72 66 63 68 54 357 347 342 326 332 340 115 72 9 347 341 337 334 328 323 322 322 322 323 320 328 305
360 358 353 350 347 337 321 282 226 221 187 181 198 202 207 195 152 167 61 16 354 328 13 58 147 39 246 216 217 287 284 307 262 219 224 230 238 219 231 233 243 251 261 235 16 265 245 74 116 136 202 56 76 94 53 54 18 45 34 41 7 19 126 200 276 264 282 302 310 129 111 100 336 332 332 332 331 327 326 325 326 324 327 324 326
2 357 357 353 348 334 337 350 219 185 182 171 175 181 165 166 77 69 63 45 37 24 21 37 29 41 74 42 28 7 352 329 297 283 258 48 334 318 308 295 44 44 18 43 33 42 35 108 138 167 182 128 28 75 311 58 40 48 25 290 247 258 175 215 214 209 211 262 243 146 148 167 215 286 309 314 321 324 325 327 326 326 326 330 333
357 356 350 347 336 342 3 14 114 23 160 152 151 130 64 50 52 50 42 45 45 40 36 35 33 32 30 44 43 39 32 25 6 19 48 52 49 41 36 52 57 46 51 56 40 43 24 34 20 37 48 28 56 48 348 334 317 355 217 257 243 225 214 213 204 198 211 204 226 231 179 178 197 216 248 277 294 311 319 328 327 326 319 323 325
352 347 344 331 341 349 343 341 123 132 175 122 64 55 60 59 58 56 51 55 56 51 45 41 41 29 23 34 37 36 38 29 24 41 65 61 60 61 41 59 66 52 49 57 61 47 46 55 41 46 47 57 330 30 13 294 307 306 281 251 244 265 267 254 257 224 225 244 241 239 240 181 191 209 219 248 275 292 314 316 328 330 327 319 320
348 342 340 343 355 346 358 20 40 44 64 72 72 62 66 67 63 62 59 59 62 58 53 48 43 32 28 32 33 30 37 38 37 46 58 59 56 52 46 48 55 57 62 68 49 46 58 56 38 35 32 13 22 302 265 275 284 286 300 287 316 295 300 307 298 277 259 246 266 261 257 260 247 187 214 234 246 276 282 308 329 331 331 331 321
345 340 346 356 352 2 37 43 53 63 68 74 75 72 61 73 78 71 58 63 65 63 56 48 44 37 31 40 43 36 39 41 37 38 46 60 59 54 37 31 38 51 48 34 40 23 33 37 23 37 61 50 293 290 300 296 304 316 308 328 307 318 319 305 291 307 314 284 273 284 290 297 295 302 142 204 230 250 288 331 334 331 333 329 331
356 355 352 352 15 22 44 51 47 63 70 77 77 74 67 68 72 70 65 60 60 59 56 46 40 37 35 40 40 41 38 40 35 51 50 48 56 65 59 49 59 73 68 58 87 99 63 46 16 23 70 32 5 9 340 330 316 313 304 299 300 310 299 279 277 277 277 306 298 306 325 327 347 348 341 337 186 189 47 2 342 333 327 334 330
10 357 352 10 35 15 43 62 57 65 65 67 76 81 79 73 75 73 71 65 64 63 59 57 52 52 50 48 39 39 41 47 52 50 52 43 49 49 41 34 30 27 29 37 37 43 40 40 29 12 24 40 359 352 321 311 319 327 326 315 305 298 292 291 295 295 356 337 332 348 352 4 357 358 324 303 341 125 118 60 339 330 330 333 331
12 8 15 25 38 28 32 50 60 74 72 67 71 74 75 73 70 66 63 57 55 51 49 51 53 49 44 45 40 42 46 46 49 56 63 62 56 52 44 38 35 35 31 38 39 35 30 31 36 24 23 1 4 357 352 347 335 319 302 295 290 286 280 310 320 357 352 341 355 6 353 22 20 334 359 352 360 352 141 163 299 303 319 318 334
20 26 30 39 44 40 44 54 63 64 69 66 68 73 75 74 70 67 62 60 57 55 49 46 49 51 46 44 39 43 47 47 46 51 59 56 54 52 48 42 41 38 38 37 35 28 26 18 24 30 22 12 12 1 349 337 324 309 306 302 299 306 318 318 7 6 8 21 15 14 17 22 33 18 11 13 7 14 354 314 258 271 253 290 329
31 38 42 46 48 45 50 52 66 74 77 75 73 78 76 75 74 68 63 59 52 48 49 51 45 44 46 43 37 39 34 44 49 49 54 55 54 49 48 44 46 47 43 36 33 26 19 26 18 19 60 40 10 1 344 330 316 297 283 281 290 307 331 22 27 36 21 355 348 357 56 47 56 40 35 17 35 3 11 353 6 359 14 277 317
40 46 58 56 64 64 63 63 63 75 81 77 71 72 75 72 76 72 67 61 57 54 51 51 46 44 38 39 39 42 35 37 47 56 64 64 62 57 60 60 60 61 56 49 37 27 15 9 36 19 25 46 25 357 345 326 297 311 322 303 263 269 61 61 78 71 347 347 22 2 34 46 37 46 38 30 23 17 5 7 3 356 349 350 335
48 56 62 58 59 69 62 57 59 75 79 74 71 72 75 79 74 71 73 65 62 59 56 49 46 42 39 40 39 39 39 39 38 41 47 54 56 53 50 56 56 49 48 45 37 33 28 19 8 57 31 31 28 5 355 331 354 340 335 321 313 105 89 114 125 7 22 40 15 30 35 33 25 26 14 10 26 23 360 360 2 349 345 345 335
51 56 60 60 62 58 62 63 61 65 68 71 76 67 59 66 83 78 79 66 62 58 56 48 47 44 42 39 38 38 39 39 35 38 42 46 49 50 48 45 46 49 47 44 38 35 31 27 16 22 44 40 41 14 9 355 11 352 333 336 68 86 101 123 24 357 53 39 17 43 40 46 32 11 358 358 22 1 0 359 358 345 344 340 336
62 63 64 71 67 67 67 69 69 72 71 78 83 81 80 77 82 86 84 81 68 70 68 64 56 53 47 43 41 39 38 38 37 36 37 38 42 45 44 43 43 43 47 43 37 35 29 28 27 22 10 42 41 34 21 22 3 338 330 334 11 335 125 129 16 345 58 19 35 63 49 45 36 16 360 7 2 355 354 0 350 343 340 337 333
63 58 57 65 67 69 74 80 79 79 79 77 83 87 87 87 83 86 85 85 86 78 73 64 60 56 52 47 44 42 42 42 38 39 41 39 40 44 45 42 43 42 45 45 38 33 29 26 24 24 14 24 27 28 29 27 20 2 11 347 312 333 347 8 354 331 91 359 60 29 31 18 31 22 5 358 360 354 351 355 347 343 338 331 327
59 49 44 56 66 71 77 83 83 84 87 92 95 100 99 95 97 97 97 97 89 79 75 67 62 59 58 49 47 46 47 47 45 44 44 43 42 42 44 45 43 40 42 43 42 37 30 28 25 27 23 14 23 20 21 28 34 22 14 355 354 2 11 330 332 283 40 342 51 12 15 32 38 14 351 353 9 353 354 353 346 338 334 330 327
66 52 49 58 68 74 78 79 83 83 88 96 106 108 111 113 112 107 99 89 82 69 67 71 67 63 62 60 55 50 50 50 48 47 46 45 45 43 43 43 43 42 40 41 39 38 33 28 24 24 26 18 12 26 19 13 39 29 24 34 14 344 328 323 324 312 341 302 18 335 350 51 20 8 349 2 3 351 4 353 337 333 330 328 331
66 63 65 68 70 72 70 72 76 73 72 80 87 92 84 81 82 85 90 90 94 86 84 82 82 78 73 67 61 53 50 51 49 47 47 45 47 44 43 43 41 41 38 39 37 33 31 29 21 23 25 23 17 31 22 11 11 33 16 16 8 345 330 325 334 322 323 334 331 334 328 15 13 353 333 5 349 354 6 342 327 329 327 328 326
78 76 74 73 73 74 76 76 74 76 74 76 78 83 92 91 94 92 89 90 89 95 91 85 83 81 76 71 67 60 53 50 50 47 46 45 44 45 42 41 41 38 36 39 36 31 28 28 27 22 20 25 25 20 17 12 13 5 3 2 357 350 338 331 338 330 317 312 316 310 337 351 339 326 326 1 333 10 350 331 323 331 326 322 324
76 75 78 78 80 82 83 83 82 78 76 76 81 84 90 96 97 99 97 93 95 95 96 91 85 81 78 74 71 68 62 54 50 49 46 45 44 44 43 44 42 39 36 37 33 31 29 25 23 25 20 19 22 17 17 11 4 7 355 353 353 351 347 348 339 352 329 315 307 324 321 320 310 299 342 309 3 11 335 316 323 324 314 319 338
86 90 90 90 88 90 91 89 83 82 82 83 87 88 91 95 97 99 102 102 100 96 93 92 86 82 79 74 68 64 60 57 52 46 45 45 42 41 43 41 41 38 35 31 28 27 25 25 23 25 21 21 17 15 22 10 356 6 358 350 350 348 343 344 345 341 322 299 305 316 324 327 324 331 322 301 22 327 315 299 307 308 303 335 336
94 94 91 94 95 96 96 89 86 86 85 86 89 92 94 95 95 96 96 97 97 97 94 88 86 82 80 75 71 66 60 56 52 47 43 39 42 40 39 40 37 35 31 28 26 19 17 20 19 16 22 19 15 5 14 15 1 1 360 358 351 351 343 338 338 340 329 321 316 313 320 319 318 317 330 326 300 285 273 260 273 289 287 318 316